Wind_Speed
6 4 10 22 14 13 3 6 8 7 10 6 10 17 18 32 22 23 35 41 46 54 58 57 49 40 38 42 46 47 45 43 42 43 43 43 43 42 41 38 36 35 33 31
2 9 18 11 5 10 12 18 20 16 15 6 16 23 19 12 23 34 32 41 47 50 53 56 48 36 32 35 41 47 48 45 43 44 44 43 42 42 41 38 38 36 34 32
19 10 14 10 8 6 15 15 18 19 6 5 9 20 12 14 24 36 38 46 49 56 54 53 46 36 32 35 38 44 47 45 43 43 43 43 41 40 40 42 41 39 36 34
10 12 11 10 8 14 24 12 14 9 4 12 4 24 7 8 12 12 24 38 43 51 50 47 40 32 31 32 35 40 44 42 41 42 43 46 44 45 46 45 44 41 38 37
9 5 6 9 21 11 21 4 6 3 4 5 4 5 4 8 7 12 15 34 42 45 46 43 35 25 25 29 33 37 41 40 40 41 42 43 44 42 42 43 43 41 40 39
10 2 5 9 5 9 1 3 4 4 1 11 10 9 7 6 7 6 11 32 34 33 38 36 20 18 24 29 31 35 38 38 39 39 41 43 41 42 44 44 43 43 43 42
3 6 3 6 5 3 4 5 3 3 1 12 9 6 20 7 9 11 14 30 36 39 37 34 20 22 26 28 31 35 37 39 38 40 40 40 41 43 43 44 42 43 45 45
2 17 9 6 10 9 11 10 7 7 10 20 4 10 11 11 16 26 27 34 40 41 38 30 19 22 24 28 32 35 36 38 41 41 42 41 41 43 43 43 44 44 43 43
5 18 3 4 4 8 2 6 11 2 2 1 9 14 10 2 8 6 16 28 35 33 34 23 23 23 24 27 31 33 35 37 41 44 45 44 43 45 45 43 44 44 42 42
3 7 4 1 2 3 7 3 1 2 5 8 11 6 15 9 5 8 15 22 40 26 21 21 19 18 21 23 27 29 34 38 42 44 45 46 45 46 45 43 43 45 45 43
4 5 11 2 7 10 2 5 5 3 4 12 16 14 6 8 1 6 12 27 32 21 5 5 9 14 17 20 25 28 35 41 43 42 45 49 49 50 49 46 44 45 45 44
6 5 6 15 12 5 7 16 17 10 11 5 5 11 30 29 18 20 22 29 27 15 8 7 9 12 16 22 28 31 35 40 39 40 46 47 52 53 53 52 49 47 47 44
4 4 11 7 12 14 8 12 10 8 8 21 17 14 26 25 21 27 21 32 33 42 27 27 37 35 33 37 40 37 40 38 36 44 47 48 51 54 57 56 54 51 49 45
13 15 19 20 19 4 6 8 9 16 15 19 19 25 25 27 29 30 24 31 29 38 41 39 42 44 43 43 49 44 39 36 40 44 47 48 50 52 54 55 55 54 52 47
10 20 18 28 28 25 29 29 29 27 26 25 30 29 22 25 28 23 41 42 33 30 33 41 45 43 42 43 44 40 38 42 41 45 49 49 47 49 53 54 52 52 51 48
6 14 22 31 29 26 27 33 32 33 33 34 29 30 28 29 42 37 45 44 42 31 28 32 38 45 42 45 51 55 53 49 50 52 53 52 52 50 53 50 50 50 48 46
9 9 14 19 8 21 19 25 36 35 29 24 27 29 17 17 20 24 30 28 29 32 33 36 40 39 38 44 47 53 52 54 49 53 54 54 52 52 50 48 48 48 47 46
17 19 14 20 20 26 15 7 16 27 25 24 13 15 17 21 33 17 30 35 37 38 41 40 43 47 48 40 39 40 46 46 47 49 51 50 51 49 46 47 47 46 46 47
19 17 11 14 20 20 21 8 8 8 5 18 12 14 17 28 30 6 36 41 38 37 36 38 45 46 45 45 41 28 30 36 37 39 40 43 46 46 46 46 46 46 47 48
13 8 8 14 11 13 7 15 26 15 8 20 11 12 15 21 14 15 41 38 36 35 35 43 43 47 47 43 46 43 27 23 27 32 36 40 42 44 42 43 44 44 45 46
4 4 7 12 14 6 8 9 17 6 9 12 10 14 14 11 10 31 37 34 34 42 44 43 46 43 42 44 41 40 38 30 25 26 31 34 36 39 38 39 39 41 44 47
4 3 4 4 4 13 26 13 4 10 12 13 17 19 18 24 24 25 28 33 41 42 42 39 42 44 44 36 38 41 37 32 28 26 25 27 30 32 35 37 38 39 42 45
4 6 3 4 5 23 29 12 26 10 8 11 15 20 23 25 26 27 31 37 39 41 44 41 38 43 44 38 35 36 39 35 31 27 25 23 25 29 30 32 36 38 41 44
4 10 3 3 6 10 27 31 23 8 14 20 21 24 23 22 31 34 34 38 42 42 44 45 45 44 46 42 41 42 40 31 34 34 29 26 25 26 27 29 33 35 42 46
8 1 7 9 15 24 24 21 15 22 24 20 24 27 27 24 30 27 32 36 37 45 49 46 47 50 49 43 41 40 42 36 35 37 34 33 35 36 34 32 32 36 41 45
16 16 11 15 23 20 24 27 23 24 18 22 25 30 32 31 35 35 41 44 44 47 47 49 50 49 50 47 45 42 40 38 38 37 39 38 36 40 39 39 40 42 46 46
Wind_Direction
195 145 198 226 210 237 209 228 235 251 268 235 234 245 250 266 273 259 267 271 269 266 272 274 275 274 264 256 250 243 237 235 228 224 223 223 225 225 225 224 226 227 228 229
224 212 220 231 214 227 243 256 262 270 257 215 266 262 262 256 264 264 261 266 268 271 271 274 276 275 264 253 249 242 234 234 228 226 226 226 227 226 228 226 228 228 229 229
232 232 221 225 236 228 233 237 254 257 317 241 290 276 260 250 253 262 259 261 267 268 271 273 276 272 262 253 246 243 235 231 227 225 223 225 226 227 226 225 226 227 227 228
245 240 213 208 230 208 261 225 256 264 304 278 129 293 235 251 245 253 256 264 263 270 273 275 277 269 258 254 244 238 232 229 226 226 226 226 226 224 226 228 229 227 226 228
246 192 204 213 230 186 254 205 256 238 229 322 198 264 184 209 248 247 250 256 266 276 278 278 278 266 251 247 244 235 226 225 227 228 229 229 228 230 234 233 231 229 229 228
245 221 200 213 186 195 147 90 44 57 90 266 186 200 300 175 215 260 258 257 262 274 278 281 259 238 238 239 238 230 224 224 228 229 229 229 230 231 232 233 230 229 230 229
293 222 209 181 242 156 154 107 297 309 63 252 184 216 254 267 239 226 249 256 270 272 262 279 254 236 228 231 231 226 223 225 227 226 227 227 229 232 233 236 234 232 230 230
251 293 167 172 198 200 213 189 195 209 256 274 119 247 268 224 241 252 273 274 280 280 278 266 242 244 229 227 225 226 226 229 227 224 223 224 226 231 234 237 237 236 237 237
199 269 126 210 176 153 183 189 235 326 43 351 261 272 281 234 279 300 298 317 298 281 275 266 246 233 223 230 231 231 231 231 230 229 226 225 228 231 232 235 237 238 239 239
245 280 250 78 22 283 190 173 78 209 201 249 274 257 266 295 280 338 350 332 328 309 279 258 232 228 232 240 242 239 237 237 236 232 233 232 230 232 234 235 237 238 239 239
157 160 279 109 191 220 192 243 233 211 191 253 260 270 190 215 135 293 306 317 331 312 311 230 227 236 247 251 247 242 241 239 238 237 238 238 235 236 235 236 236 238 239 240
212 151 218 266 285 268 221 261 239 237 240 219 233 257 284 271 275 287 279 285 303 285 238 264 284 277 274 266 253 251 245 243 241 244 244 244 242 242 240 238 237 237 237 236
177 250 275 261 280 236 216 228 234 255 251 238 243 255 257 269 271 270 274 269 267 257 274 286 292 288 284 279 272 262 248 239 243 246 247 245 246 246 244 242 241 239 237 234
251 247 241 251 248 254 232 222 229 236 250 257 243 252 261 269 270 275 273 280 275 266 278 286 286 284 284 284 278 264 255 254 254 251 250 246 247 249 248 245 242 239 238 234
234 251 238 246 252 252 256 258 256 249 255 252 257 258 257 260 270 283 291 290 283 273 280 285 281 281 282 279 270 257 259 255 255 253 249 247 251 250 249 245 243 240 237 234
331 278 274 261 249 240 237 249 255 261 260 258 261 265 267 273 280 279 277 281 289 306 330 326 307 294 283 275 272 272 269 269 265 253 252 248 247 247 246 243 240 237 233 231
272 285 292 280 309 309 280 260 252 254 260 261 264 266 341 344 325 309 316 30 11 1 2 354 349 345 320 294 285 278 272 271 264 257 252 247 247 244 243 241 236 233 231 228
264 270 272 280 285 268 291 320 256 251 266 279 319 23 15 356 331 22 26 7 351 345 339 337 335 342 343 327 287 281 279 272 267 259 253 248 243 241 240 238 235 230 227 226
231 248 267 261 267 281 278 334 358 332 332 21 19 18 11 357 337 291 353 342 330 328 330 334 337 336 342 343 340 301 275 266 260 256 253 249 245 241 238 234 232 227 225 223
306 281 275 292 290 285 50 358 331 313 214 355 40 2 356 353 338 319 332 328 323 326 325 324 329 328 329 335 336 346 326 289 272 263 254 246 243 240 237 233 230 228 225 225
359 330 264 274 276 270 54 350 336 296 323 328 347 333 324 326 313 303 312 316 316 317 317 324 326 320 320 322 329 332 335 329 305 284 266 256 249 244 241 236 232 229 225 222
283 292 301 323 288 263 4 354 1 289 295 300 323 325 316 310 316 311 314 313 318 318 316 318 319 317 313 316 317 322 321 321 321 311 293 269 255 245 238 234 232 229 226 224
269 204 211 183 253 308 312 302 305 288 305 302 302 316 322 317 316 314 320 318 318 314 314 317 317 314 312 314 310 300 300 306 303 302 296 275 262 246 240 236 232 227 225 223
254 262 237 336 256 279 284 293 289 297 311 317 314 312 316 308 319 320 316 312 313 314 313 315 315 311 306 309 304 300 294 293 289 284 279 281 266 260 253 246 239 236 231 224
227 265 245 265 276 278 276 280 282 299 302 289 303 310 312 313 311 303 299 303 307 309 313 314 310 310 307 304 294 297 300 290 292 276 265 255 252 256 252 250 251 246 243 237
240 251 255 263 268 275 282 288 284 298 287 302 307 307 309 311 310 313 310 309 306 307 308 310 309 307 304 301 295 285 280 287 285 285 270 257 251 250 243 239 237 232 234 232
Height
1516 1522 1524 1510 1513 1504 1511 1516 1512 1500 1490 1492 1489 1481 1474 1466 1465 1461 1456 1451 1448 1444 1435 1437 1439 1443 1444 1446 1446 1448 1452 1456 1461 1466 1470 1474 1477 1483 1487 1491 1495 1498 1501 1503
1516 1517 1503 1501 1505 1509 1510 1508 1504 1489 1487 1493 1483 1470 1464 1464 1455 1450 1449 1440 1435 1431 1426 1425 1429 1432 1432 1434 1435 1436 1441 1446 1451 1457 1462 1467 1470 1475 1480 1485 1488 1491 1494 1497
1501 1497 1500 1504 1504 1508 1501 1506 1494 1492 1490 1486 1484 1463 1463 1451 1446 1440 1436 1430 1427 1418 1414 1413 1418 1422 1423 1423 1425 1427 1432 1438 1444 1450 1455 1460 1466 1470 1473 1475 1479 1483 1487 1491
1500 1492 1493 1499 1501 1499 1487 1489 1490 1493 1497 1492 1481 1441 1450 1445 1438 1432 1427 1420 1416 1409 1408 1407 1408 1411 1414 1415 1418 1421 1426 1433 1439 1444 1448 1449 1453 1456 1460 1465 1471 1476 1481 1484
1488 1484 1489 1492 1483 1491 1477 1485 1489 1489 1495 1493 1489 1494 1429 1433 1437 1426 1415 1413 1409 1403 1400 1399 1401 1403 1405 1409 1411 1415 1420 1427 1432 1436 1441 1445 1449 1454 1457 1460 1466 1471 1475 1478
1485 1480 1480 1476 1475 1479 1480 1479 1488 1497 1499 1484 1479 1485 1407 1439 1427 1420 1412 1405 1401 1397 1395 1393 1396 1397 1400 1403 1406 1410 1416 1422 1425 1431 1434 1438 1443 1446 1449 1452 1456 1461 1466 1469
1482 1476 1469 1472 1480 1477 1480 1486 1506 1509 1519 1483 1457 1475 1421 1423 1414 1412 1405 1397 1394 1393 1388 1389 1391 1391 1394 1397 1400 1405 1410 1414 1418 1421 1426 1430 1434 1437 1441 1445 1450 1455 1457 1459
1488 1470 1469 1465 1470 1471 1476 1476 1485 1503 1481 1447 1475 1450 1420 1410 1404 1401 1401 1396 1391 1387 1387 1383 1387 1387 1390 1392 1395 1400 1405 1408 1410 1412 1415 1420 1424 1429 1434 1440 1444 1446 1451 1456
1482 1467 1462 1463 1460 1464 1471 1478 1458 1473 1506 1494 1433 1419 1406 1407 1405 1400 1399 1397 1384 1375 1380 1382 1383 1384 1385 1390 1391 1394 1400 1403 1406 1408 1409 1412 1419 1422 1424 1429 1435 1440 1445 1449
1465 1470 1453 1459 1463 1460 1462 1461 1472 1473 1473 1476 1442 1428 1408 1407 1405 1401 1395 1394 1384 1377 1376 1378 1378 1385 1386 1388 1390 1393 1395 1397 1399 1403 1406 1409 1410 1415 1418 1422 1425 1432 1437 1441
1463 1469 1459 1459 1460 1456 1464 1462 1457 1453 1455 1436 1438 1421 1407 1402 1399 1402 1396 1391 1387 1386 1381 1380 1381 1383 1387 1390 1390 1389 1390 1390 1393 1395 1397 1401 1403 1405 1409 1412 1415 1421 1426 1433
1463 1463 1470 1457 1453 1449 1450 1446 1438 1439 1438 1444 1434 1422 1389 1391 1392 1392 1391 1390 1389 1387 1384 1382 1383 1384 1385 1387 1386 1384 1383 1383 1384 1385 1388 1391 1394 1397 1398 1401 1405 1410 1414 1420
1455 1461 1452 1454 1447 1441 1441 1431 1429 1423 1419 1413 1420 1412 1387 1386 1383 1379 1386 1381 1385 1385 1384 1381 1379 1377 1378 1378 1377 1376 1374 1372 1376 1377 1378 1380 1382 1386 1388 1389 1394 1400 1404 1410
1451 1447 1440 1431 1421 1422 1426 1423 1422 1416 1415 1405 1400 1391 1384 1377 1371 1362 1379 1377 1379 1380 1377 1376 1376 1372 1370 1371 1367 1366 1363 1365 1366 1367 1368 1367 1368 1372 1376 1377 1382 1388 1392 1398
1448 1437 1437 1422 1415 1415 1410 1412 1410 1404 1395 1396 1382 1380 1381 1373 1362 1364 1366 1369 1373 1373 1370 1370 1369 1365 1364 1362 1357 1356 1353 1353 1355 1355 1354 1354 1357 1361 1367 1365 1369 1377 1382 1387
1448 1431 1425 1410 1410 1409 1407 1401 1397 1390 1385 1381 1380 1379 1372 1369 1368 1364 1361 1364 1366 1370 1368 1366 1362 1358 1353 1355 1353 1348 1343 1341 1342 1342 1341 1343 1344 1346 1352 1352 1356 1364 1370 1377
1446 1439 1428 1409 1417 1415 1405 1397 1390 1379 1381 1380 1377 1367 1378 1378 1379 1371 1366 1373 1377 1376 1370 1365 1362 1354 1351 1347 1341 1335 1333 1328 1326 1327 1327 1327 1332 1335 1338 1340 1344 1350 1357 1364
1436 1432 1427 1413 1412 1398 1384 1384 1379 1378 1376 1374 1378 1387 1392 1394 1386 1382 1377 1379 1377 1373 1369 1364 1359 1349 1343 1334 1328 1322 1318 1316 1315 1314 1315 1317 1321 1325 1326 1331 1335 1339 1344 1350
1423 1420 1414 1410 1394 1375 1376 1394 1395 1394 1387 1402 1397 1397 1392 1391 1384 1373 1375 1378 1377 1371 1367 1361 1354 1347 1339 1333 1324 1310 1304 1304 1304 1303 1304 1309 1312 1313 1315 1317 1324 1329 1333 1340
1414 1418 1419 1411 1411 1390 1405 1403 1400 1393 1377 1401 1400 1404 1398 1395 1389 1368 1369 1373 1369 1366 1363 1356 1346 1342 1337 1330 1323 1312 1305 1300 1298 1297 1298 1300 1303 1306 1306 1312 1317 1321 1326 1334
1442 1435 1426 1413 1404 1392 1400 1399 1394 1391 1396 1399 1404 1402 1404 1399 1388 1376 1367 1364 1367 1363 1357 1346 1339 1338 1334 1328 1322 1315 1310 1304 1298 1295 1295 1296 1297 1301 1304 1308 1311 1315 1320 1325
1432 1434 1432 1423 1422 1404 1397 1399 1410 1402 1396 1395 1390 1386 1386 1385 1376 1373 1363 1360 1355 1354 1352 1346 1336 1330 1326 1321 1318 1312 1311 1310 1300 1293 1292 1292 1294 1294 1296 1301 1302 1307 1315 1318
1434 1423 1427 1422 1410 1400 1395 1400 1396 1393 1390 1389 1388 1384 1380 1373 1370 1367 1355 1356 1353 1352 1346 1339 1329 1321 1318 1311 1311 1307 1308 1308 1302 1294 1290 1289 1289 1291 1290 1293 1296 1300 1304 1309
1417 1410 1414 1413 1401 1399 1395 1392 1390 1388 1386 1382 1380 1377 1373 1369 1362 1355 1355 1354 1350 1343 1336 1329 1321 1312 1305 1303 1303 1302 1298 1297 1296 1293 1288 1284 1285 1288 1286 1286 1290 1294 1297 1300
1410 1407 1405 1400 1394 1389 1386 1385 1383 1381 1379 1376 1374 1370 1365 1363 1357 1357 1353 1350 1343 1334 1326 1319 1313 1304 1294 1294 1293 1289 1289 1288 1283 1283 1278 1274 1276 1276 1278 1279 1281 1284 1288 1292
1398 1396 1396 1386 1382 1381 1377 1376 1375 1374 1370 1369 1366 1361 1359 1357 1352 1348 1342 1336 1330 1323 1317 1307 1301 1294 1288 1284 1280 1277 1279 1279 1274 1271 1269 1264 1262 1267 1265 1265 1267 1274 1279 1283